Terminal Aerodrome Forecast
Issued by NWS

Current Version | Previous Version | Graphics & Text | Print | Product List | Glossary On
Versions: 1 2 3 4 5 6 7 8 9 10 11 12
000
FTUS41 KPBZ 172300
TAFHLG
TAF
KHLG 172320Z 1800/1824 16007KT P6SM BKN250
     FM181500 21009KT P6SM SCT100
     FM182200 27006KT P6SM BKN100=

USA.gov is the U.S. government's official web portal to all federal, state and local government web resources and services.